Location: Lecco
(45.8566°N, 9.3977°E)
Time: 05:23:24
(UTC+02:00)

Transit 2A - Visible Passes

Search period start: 08 August 2020 00:00
Search period end: 18 August 2020 00:00
Orbit: 591 x 967 km, 66.7° (Epoch: 07 August)

Date Brightness Start Highest point End Pass type
(mag) Time Alt. Az. Time Alt. Az. Time Alt. Az.
08 Aug 9.0 00:32:42 10° WNW 00:36:52 19° NNW 00:41:12 10° NNE visible
08 Aug 9.6 02:21:35 10° NNW 02:22:55 11° N 02:24:16 10° N visible
08 Aug 9.3 04:05:22 10° NNW 04:09:07 16° NNE 04:12:50 10° ENE visible
08 Aug 6.5 22:12:09 10° SW 22:17:58 78° NW 22:24:18 10° NNE visible
08 Aug 8.8 23:57:39 10° W 00:02:19 22° NNW 00:07:10 10° NNE visible
09 Aug 9.6 01:46:25 10° NNW 01:48:10 11° N 01:49:54 10° N visible
09 Aug 9.4 03:31:20 10° N 03:34:27 14° NNE 03:37:33 10° NE visible
09 Aug 8.3 05:13:55 10° NNW 05:19:45 35° NE 05:25:20 10° ESE visible
09 Aug 6.3 21:38:00 10° SSW 21:43:48 79° ESE 21:50:07 10° NE visible
09 Aug 8.5 23:22:45 10° W 23:27:49 27° NW 23:33:08 10° NNE visible
10 Aug 9.5 01:11:05 10° NW 01:13:24 12° NNW 01:15:46 10° N visible
10 Aug 9.6 02:57:16 10° N 02:59:44 12° NNE 03:02:12 10° NE visible
10 Aug 8.7 04:39:53 10° NNW 04:45:19 28° NE 04:50:34 10° E visible
10 Aug 6.4 21:04:03 10° SSW 21:09:42 58° ESE 21:15:51 10° NE visible
10 Aug 8.1 22:47:58 10° WSW 22:53:22 34° NW 22:59:05 10° NNE visible
11 Aug 9.5 00:35:45 10° NW 00:38:42 13° NNW 00:41:42 10° N visible
11 Aug 9.6 02:23:08 10° N 02:25:00 11° N 02:26:52 10° NNE visible
11 Aug 8.9 04:05:50 10° NNW 04:10:49 23° NE 04:15:40 10° E visible
11 Aug 7.7 22:13:20 10° WSW 22:18:58 43° NW 22:25:01 10° NNE visible
12 Aug 9.4 00:00:28 10° WNW 00:04:02 15° NNW 00:07:39 10° NNE visible
12 Aug 9.7 01:48:50 10° N 01:50:15 11° N 01:51:40 10° NNE visible
12 Aug 9.1 03:31:49 10° NNW 03:36:16 19° NNE 03:40:37 10° ENE visible
12 Aug 7.1 05:14:33 10° NNW 05:20:54 61° NE 05:26:52 10° SE visible
12 Aug 7.2 21:38:51 10° SW 21:44:40 56° NW 21:50:54 10° NNE visible
12 Aug 9.2 23:25:17 10° WNW 23:29:24 18° NNW 23:33:38 10° NNE visible
13 Aug 9.7 01:14:08 10° NNW 01:15:28 11° N 01:16:49 10° N visible
13 Aug 9.3 02:57:47 10° NNW 03:01:39 16° NNE 03:05:27 10° ENE visible
13 Aug 7.6 04:40:27 10° NNW 04:46:36 47° NE 04:52:25 10° ESE visible
13 Aug 6.7 21:04:32 10° SW 21:10:24 74° NW 21:16:46 10° NNE visible
13 Aug 9.0 22:50:13 10° W 22:54:49 22° NNW 22:59:37 10° NNE visible
14 Aug 9.7 00:39:02 10° NNW 00:40:43 11° N 00:42:24 10° N visible
14 Aug 9.4 02:23:45 10° N 02:26:59 14° NNE 02:30:12 10° NE visible
14 Aug 8.0 04:06:22 10° NNW 04:12:14 36° NE 04:17:49 10° ESE visible
14 Aug 8.7 22:15:16 10° W 22:20:18 26° NW 22:25:34 10° NNE visible
15 Aug 9.6 00:03:44 10° NNW 00:05:58 12° NNW 00:08:13 10° N visible
15 Aug 9.5 01:49:41 10° N 01:52:18 12° NNE 01:54:52 10° NE visible
15 Aug 8.4 03:32:19 10° NNW 03:37:49 29° NE 03:43:05 10° E visible
15 Aug 6.3 05:15:23 10° NW 05:21:43 73° WSW 05:27:38 10° SSE visible
15 Aug 8.4 21:40:28 10° WSW 21:45:51 32° NW 21:51:31 10° NNE visible
15 Aug 9.4 23:28:23 10° NW 23:31:15 13° NNW 23:34:08 10° N visible
16 Aug 9.5 01:15:35 10° N 01:17:34 11° N 01:19:31 10° NNE visible
16 Aug 8.7 02:58:16 10° NNW 03:03:20 24° NE 03:08:13 10° E visible
16 Aug 6.5 04:41:10 10° NNW 04:47:35 85° ENE 04:53:33 10° SE visible
16 Aug 7.9 21:05:49 10° WSW 21:11:27 41° NW 21:17:27 10° NNE visible
16 Aug 9.3 22:53:06 10° NW 22:56:34 15° NNW 23:00:06 10° NNE visible
17 Aug 9.5 00:41:18 10° N 00:42:48 11° N 00:44:17 10° NNE visible
17 Aug 8.9 02:24:14 10° NNW 02:28:47 20° NNE 02:33:13 10° ENE visible
17 Aug 6.8 04:07:01 10° NNW 04:13:21 64° NE 04:19:17 10° SE visible
17 Aug 7.3 05:51:05 10° NW 05:56:08 26° WSW 06:00:54 10° SSW visible
17 Aug 9.2 22:17:53 10° WNW 22:21:56 18° NNW 22:26:04 10° NNE visible
